Location: Enborne
(51.3833°N, 1.3667°W)
Time: 22:03:54
(UTC+00:00)

Resurs 1-3 - Pass Details

Date: 18 September 2020
Orbit: 630 x 632 km, 97.9° (Epoch: 20 October)

Event Time Altitude Azimuth Distance (km) Brightness Sun altitude
Exits shadow 20:01:15 27° 152° (SSE) 1,219 4.6 -17.3°
Maximum altitude 20:03:36 72° 73° (ENE) 669 3.5 -17.6°
Drops below altitude 10° 20:08:00 10° 349° (N) 2,026 6.7 -18.2°
Sets 20:10:12 0° 348° (NNW) 2,939 7.6 -18.5°
